www.pogodaiklimat.ru

Погода и климат >> Архив погоды >> Аргентина >> Сан-Луис


ПОГОДА в Сан-Луисе

  • Прогноз погоды в Сан-Луисе
  • Монитор погоды в Сан-Луисе

АРХИВ ПОГОДЫ в Сан-Луисе

Время (UTC), дата Ветер
(напр.,м/с)
 
Видим.   Явления Облачность Т
(С)
Тd
(С)
f
(%)
Тe
(С)
Тes
(С)
Комфортность P
(гПа)
Po
(гПа)
Тmin
(С)
Tmax
(С)
R
(мм)
R24
(мм)
S
(см)
00 15.09 С 2 20 км 1/0
[Cs]
+17.9 +5.1 43 +18 +18 1006.1 925.6 +14.6 +25.1
03 15.09 С 4 20 км ясно +15.2 +4.4 48 +14 +14 1005.3 925.3
06 15.09 В 3 20 км ясно +15.2 +4.9 50 +15 +15 1002.9 923.6
09 15.09 ЮВ 2 20 км ясно +12.5 +6.2 65 +12 +12 1003.4 923.7
12 15.09 В 2 20 км 3/0
[Ci]
+15.9 +7.1 56 +16 +19 1005.8 925.4 +10.5 +17.9
15 15.09 Ю 6 20 км 1/1 1200 м
[Cu hum Ci fib]
+21.1 +6.9 40 +22 +27 комфорт 1005.6 925.7
18 15.09 В 6 20 км ясно +24.5 +3.9 26 +24 +29 комфорт 1004.4 925.0
21 15.09 В 8 20 км ясно +22.4 +2.7 27 +22 +23 комфорт 1005.3 925.2
00 16.09 В 11 20 км ясно +16.8 +5.9 49 +15 +15 1009.4 928.6 +15.7 +25.1
03 16.09 В 13 20 км ясно +13.5 +3.9 52 +10 +10 1014.4 933.6
06 16.09 В 12 20 км 3/3 900 м
[St]
+9.9 -0.6 48 +6 +6 1018.6 937.4
09 16.09 ЮВ 7 20 км 1/1 900 м
[St Cs]
+8.2 -3.9 42 +4 +4 1021.6 939.6
12 16.09 В 7 20 км 1/0
[Ac As]
+7.8 -6.2 36 +4 +5 1025.8 942.6 +6.9 +16.8
15 16.09 В 6 20 км ясно +13.5 -5.7 26 +12 +18 1026.0 943.2
18 16.09 ЮВ 5 20 км ясно +16.9 -5.5 21 +16 +24 1023.0 940.4
21 16.09 Ю 3 20 км ясно +17.1 -5.1 21 +17 +19 1021.9 939.2
00 17.09 В 2 20 км ясно +10.9 -1.7 41 +11 +11 1024.1 940.2 +7.8 +17.4
03 17.09 С 3 20 км ясно +8.9 -5.1 37 +7 +7 1023.5 940.2
06 17.09 С 3 20 км ясно +7.5 -4.6 42 +5 +5 1021.4 938.6
09 17.09 С 3 20 км ясно +8.2 -5.1 39 +6 +6 1017.9 935.4
12 17.09 З 4 20 км ясно +11.7 -5.0 31 +10 +12 1017.8 935.0 +5.9 +11.8
15 17.09 СЗ 5 20 км ясно +18.5 -6.6 18 +18 +25 1015.6 933.7
18 17.09 З 4 20 км ясно +22.2 -1.8 20 +21 +31 комфорт 1011.9 930.6
21 17.09 ЮЗ 4 20 км ясно +22.6 -3.0 18 +21 +23 комфорт 1009.9 928.9
00 18.09 В 3 20 км ясно +16.2 -0.8 31 +16 +16 1012.3 930.6 +11.7 +23.8
03 18.09 В 3 20 км ясно +11.6 -1.3 41 +10 +10 1013.5 932.1
06 18.09 В 3 20 км ясно +9.3 -0.8 49 +8 +8 1013.4 932.2
09 18.09 С 4 20 км ясно +12.5 -3.8 32 +11 +11 1011.6 931.0
12 18.09 С 3 20 км 1/0
[Cs]
+14.5 -2.0 32 +14 +16 1011.5 930.4 +7.5 +16.2
15 18.09 СЗ 6 20 км 1/0
[Cs]
+23.0 -0.4 21 +22 +27 комфорт 1009.0 928.6
18 18.09 СЗ 7 20 км ясно +25.7 -0.7 18 +24 +28 комфорт 1003.5 923.6
21 18.09 С 6 20 км ясно +25.5 -3.0 15 +23 +24 комфорт 999.5 920.2
00 19.09 С 3 20 км ясно +18.3 -1.6 26 +18 +18 1000.3 920.2 +14.5 +27.0
03 19.09 С 5 20 км ясно +17.9 -0.9 28 +18 +18 998.6 919.8
06 19.09 С 4 20 км ясно +17.7 +1.8 34 +18 +18 997.8 919.4
09 19.09 В 13 20 км ясно +11.7 -4.9 31 +8 +8 1006.0 926.2
12 19.09 В 11 20 км 3/0
[Ac As Ci sp]
+9.1 -7.4 30 +5 +5 1013.9 932.1 +7.9 +19.9
15 19.09 В 11 20 км 1/0
[Ac As]
+11.3 -15.3 14 +8 +8 1014.8 933.2
18 19.09 В 9 20 км ясно +15.1 -16.4 10 +13 +15 1013.2 932.2
21 19.09 В 7 20 км ясно +14.1 -15.1 12 +12 +13 1014.8 932.6
00 20.09 ЮВ 4 20 км 6/6 1200 м
[Sc]
+10.1 -13.0 18 +9 +9 1018.7 935.4 +9.0 +15.4
03 20.09 В 3 20 км 8/8 1200 м
[Sc]
+11.5 -11.0 20 +10 +10 1020.4 937.4
06 20.09 ЮВ 3 20 км 3/1 1200 м
[Sc Ac As]
+8.3 -9.0 28 +7 +7 1020.2 937.4
09 20.09 В 4 20 км 8/8 1200 м
[Sc Ac As]
+8.9 -11.0 23 +7 +7 1020.4 937.4
12 20.09 В 6 20 км 8/8 1200 м
[Sc Ac As]
+12.1 -12.6 16 +10 +10 1022.4 939.2 +7.6 +12.2
15 20.09 З 4 20 км 1/0
[Ac As]
+16.1 -15.0 10 +16 +24 1021.9 939.4
18 20.09 З 4 20 км ясно +19.1 -13.0 10 +19 +27 1019.4 937.2
21 20.09 СЗ 5 20 км ясно +20.0 -15.2 8 +19 +20 1018.1 936.2
00 21.09 С 4 20 км ясно +14.0 -12.3 15 +13 +13 1020.0 937.6 +12.0 +21.3
03 21.09 С 4 20 км ясно +12.7 -12.2 16 +12 +12 1020.3 938.2
06 21.09 С 6 20 км ясно +13.5 -12.5 15 +12 +12 1018.9 937.4
09 21.09 С 5 20 км 1/1 900 м
[St]
+11.9 -11.8 18 +10 +10 1018.6 937.0
12 21.09 С 5 20 км ясно +14.2 -11.7 15 +13 +14 1020.4 938.2 +10.5 +16.0
15 21.09 СЗ 5 20 км ясно +20.5 -10.1 12 +20 +27 1019.8 938.2
18 21.09 В 2 20 км ясно +23.6 -8.6 11 +21 +36 комфорт 1017.6 936.8
21 21.09 В 5 20 км ясно +23.6 -6.3 13 +22 +23 комфорт 1017.1 936.2

 

Местоположение метеостанции Сан-Луис (Аргентина): широта -33.26 долгота -66.35 высота над уровнем моря 713 м.

В архиве по умолчанию представлена погода в Сан-Луисе за последнюю неделю. Архивные данные за месяц целиком и за предыдущие месяцы, начиная с января 2011 года, Вы можете получить, выбрав интересующий диапазон дат из раскрывающегося списка и нажав кнопку "Ввод!".


*Определитесь, кто Вы:
робот инопланетянин человек

Внимание! Время в таблицах - всемирное. Для получения местного времени необходимо прибавить поправку, которая равна -3 ч.

Смотрите также архив погоды в соседних городах и на ближайших метеорологических станциях:

Погода в Вилья Рейнольдс (Аргентина) (104 км)
Погода в Вилла Долорес (Аргентина) (185 км)
Погода в Сан-Мартине (Аргентина) (193 км)
Погода в Рио-Куарто (Аргентина) (195 км)
Погода в Мендосе (Аргентина) (232 км)
Погода в Сан-Рафаэле (Аргентина) (239 км)
Погода в Сан-Хуане (Аргентина) (283 км)
Погода в Пиларе (Аргентина) (292 км)
Погода в Лабоулайе (Аргентина) (293 км)
Погода в Кордове (Аргентина) (296 км)

Пояснения к столбцам:

Ветер - указаны скорость ветра в м/с - средняя за 10 мин, порывы в срок и между сроками (в фигурных скобках) и направление, откуда дует ветер: С - северный, СВ - северо-восточный, В - восточный, ЮВ - юго-восточный, Ю - южный, ЮЗ - юго-западный, З - западный, СЗ - северо-западный.
Видимость - горизонтальная дальность видимости в метрах или километрах. При видимости от 1 до 10 км при отсутствии осадков обычно наблюдается дымка, при ухудшении видимости до 1 км и менее - туман. В сухую погоду видимость может ухудшаться дымом, пылью или мглою.
Явления - указаны атмосферные явления, наблюдавшиеся в срок или в последний час перед сроком; фигурными скобками обозначены явления, наблюдавшиеся между сроками (за 1-3 часа до срока); квадратными скобками обозначены град или гололедные отложения с указанием их диаметра в мм.
Облачность - указаны через наклонную черту общая и нижняя облачность в баллах и высота нижней границы облаков в метрах; квадратными скобками обозначены формы облаков: Ci - перистые, Cs - перисто-слоистые, Cc - перисто-кучевые, Ac - высококучевые, As - высокослоистые, Sc - слоисто-кучевые, Ns - слоисто-дождевые, Cu - кучевые, Cb - кучево-дождевые. Подробнее классификацию облаков см. в Атласе облаков (PDF).
T - Температура воздуха - температура, измеренная на высоте 2 м над землей.
Td - Температура точки росы - температура, при понижении до которой содержащийся в воздухе водяной пар достигнет насыщения.
f - Относительная влажность воздуха - влажноcть воздуха, измеренная на высоте 2 м над землей.
Te - Эффективная температура - температура, которую ощущает одетый по сезону человек в тени. Характеристика душности погоды. При расчете учитывается влияние влажности воздуха и скорости ветра на теплоощущения человека.
Tes - Эффективная температура на солнце - температура, которую ощущает человек, с поправкой на солнечный нагрев. Характеристика знойности погоды. Зависит от высоты солнца над горизонтом, облачности и скорости ветра. Ночью, в пасмурную погоду, а также при ветре 12 м/с и более поправка равна нулю.
P - Атмосферное давление - приведенное к уровню моря атмосферное давление.
Po - Атмосферное давление - измеренное на уровне метеостанции атмосферное давление.
Tmin - Минимальная температура - минимум температуры воздуха на высоте 2 м над землей.
Tmax - Максимальная температура - максимум температуры воздуха на высоте 2 м над землей.
R - Количество осадков - Количество выпавших осадков за период времени, мм. При наведении курсора мыши на число - период времени, за который выпало указанное количество осадков.
R24 - Количество осадков - Количество выпавших осадков за 24 часа, мм.
S - Снежный покров - Высота снежного покрова, см. При наведении курсора мыши на число - состояние снежного покрова и степень покрытия местности в баллах.